Tracking 18980 objects as of 20-Feb-2018
HD Live streaming from Space Station
objects crossing your sky now

IUS R/B(2)

Track IUS R/B(2) now!


NORAD ID: 25869
Int'l Code: 1999-040D
Perigee: 489.4 km
Apogee: 72,842.4 km
Inclination: 30.0 °
Period: 1,480.9 minutes
Semi major axis: 43036 km
RCS: 4.4547 m2 (large)
Launch date: July 23, 1999
Source: United States (US)
Launch site: AIR FORCE EASTERN TEST RANGE (AFETR)

Note: This is a ROCKET BODY
aabbcc
Your satellite tracking list
Your tracking list is empty




NASA's NSSDC Master Catalog

Two Line Element Set (TLE):
1 25869U 99040D   18050.48258910 +.00000096 +00000-0 -15941-2 0  9991
2 25869 030.0100 137.7082 8405930 303.7715 003.2646 00.97239208065977
Source of the keplerian elements: AFSPC